EA5SW-13 Weather Reports


Display with metric or nautical units.
time (UTC)temp
F
wind
direction
speed
MPH
gust
MPH
rain 1hr
in
rain 24hr
in
rain mn
in
humidity
%
barometer
mb
20260506043717 58 0.0 0.0 0.00 0.00 0.00 73
20260506042634 58 0.0 0.0 0.00 0.00 0.00 72
20260506041700 58 0.0 0.0 0.00 0.00 0.00 72
20260506040633 59 0.0 0.0 0.00 0.00 0.00 71
20260506035338 59 0.0 0.0 0.00 0.00 0.00 71
20260506034254 60 0.0 0.0 0.00 0.00 0.00 71
20260506033258 60 0.0 0.0 0.00 0.00 0.00 71
20260506032323 60 0.0 0.0 0.00 0.00 0.00 71
20260506031257 60 0.0 0.0 0.00 0.00 0.00 71
20260506030234 60 0.0 0.0 0.00 0.00 0.00 71
20260506025658 60 0.0 1.0 0.00 0.00 0.00 70
20260506024634 60 0.0 0.0 0.00 0.00 0.00 70
20260506023658 60 0.0 0.0 0.00 0.00 0.00 70
20260506022653 60 0.0 0.0 0.00 0.00 0.00 69
20260506021658 60 0.0 0.0 0.00 0.00 0.00 68
20260506020634 0 0.0 0.0 0.00 0.00 0.00
20260506015658 60 0.0 0.0 0.00 0.00 0.00 64
20260506014634 61 0.0 0.0 0.00 0.00 0.00 64
20260506013658 61 0.0 0.0 0.00 0.00 0.00 63
20260506012634 61 0.0 0.0 0.00 0.00 0.00 63
20260506011658 61 0.0 0.0 0.00 0.00 0.00 63
20260506010634 61 0.0 0.0 0.00 0.00 0.00 62
20260506005658 61 0.0 0.0 0.00 0.00 0.00 61
20260506004634 62 0.0 0.0 0.00 0.00 0.00 61
20260506003658 62 0.0 0.0 0.00 0.00 0.00 60
20260506002634 63 0.0 0.0 0.00 0.00 0.00 60
20260506001718 63 0.0 0.0 0.00 0.00 0.00 60
20260506000634 0 0.0 0.0 0.00 0.00 0.00
20260505235658 63 0.0 1.0 0.00 0.00 0.00 61
20260505234634 63 0.0 1.0 0.00 0.00 0.00 61
20260505233658 63 0.0 1.0 0.00 0.00 0.00 61
20260505232634 63 0.0 0.0 0.00 0.00 0.00 61
20260505231658 63 0.0 1.0 0.00 0.00 0.00 62
20260505230722 63 0.0 1.0 0.00 0.00 0.00 62
20260505225658 63 0.0 1.0 0.00 0.00 0.00 62
20260505224634 64 0.0 1.0 0.00 0.00 0.00 58
20260505223658 64 0.0 1.0 0.00 0.00 0.00 57
20260505222634 64 0.0 1.0 0.00 0.00 0.00 58
20260505221659 64 0.0 1.0 0.00 0.00 0.00 59
20260505220634 0 0.0 0.0 0.00 0.00 0.00
20260505215658 64 0.0 1.0 0.00 0.00 0.00 61
20260505214634 64 180 0.0 2.0 0.00 0.00 0.00 61
20260505213658 65 0.0 1.0 0.00 0.00 0.00 62
20260505212634 65 0.0 1.0 0.00 0.00 0.00 63
20260505211659 65 0.0 1.0 0.00 0.00 0.00 63
20260505210634 65 0.0 1.0 0.00 0.00 0.00 65
20260505205659 66 0.0 1.0 0.00 0.00 0.00 68
20260505204635 66 0.0 1.0 0.00 0.00 0.00 70
20260505203658 66 0.0 2.0 0.00 0.00 0.00 70
20260505202654 66 0.0 1.0 0.00 0.00 0.00 71
20260505201658 66 0.0 1.0 0.00 0.00 0.00 72
20260505200634 0 0.0 0.0 0.00 0.00 0.00
20260505195659 67 0.0 2.0 0.00 0.00 0.00 72
20260505194634 67 0.0 2.0 0.00 0.00 0.00 73
20260505193659 68 0.0 1.0 0.00 0.00 0.00 74
20260505192635 68 0.0 2.0 0.00 0.00 0.00 73
20260505191659 69 0.0 1.0 0.00 0.00 0.00 72
20260505190635 70 0.0 2.0 0.00 0.00 0.00 70
20260505185658 72 0.0 1.0 0.00 0.00 0.00 65
20260505184634 75 0.0 1.0 0.00 0.00 0.00 55
20260505183658 77 0.0 1.0 0.00 0.00 0.00 51
20260505182635 79 0.0 1.0 0.00 0.00 0.00 50
20260505181658 80 0.0 1.0 0.00 0.00 0.00 49
20260505180634 81 0.0 1.0 0.00 0.00 0.00 49
20260505175659 80 0.0 1.0 0.00 0.00 0.00 50
20260505174635 80 0.0 1.0 0.00 0.00 0.00 49
20260505173658 80 0.0 1.0 0.00 0.00 0.00 50
20260505172636 76 0.0 1.0 0.00 0.00 0.00 53
20260505171659 77 0.0 1.0 0.00 0.00 0.00 50
20260505170635 79 0.0 2.0 0.00 0.00 0.00 40
20260505165658 80 0.0 1.0 0.00 0.00 0.00 21
20260505164635 81 315 1.0 3.0 0.00 0.00 0.00 20
20260505163659 82 315 0.0 2.0 0.00 0.00 0.00 13
20260505162635 81 117 1.0 2.0 0.00 0.00 0.00 20
20260505161658 82 0.0 2.0 0.00 0.00 0.00 13
20260505160635 82 0 2.0 3.0 0.00 0.00 0.00 13
20260505152635 82 0 0.0 2.0 0.00 0.00 0.00 20
20260505151659 82 315 1.0 2.0 0.00 0.00 0.00 13
20260505150635 82 0 2.0 4.0 0.00 0.00 0.00 20
20260505140634 82 0 4.0 7.0 0.00 0.00 0.00 20
20260505124636 79 338 1.0 2.0 0.00 0.00 0.00 24
20260505123719 79 12 1.0 2.0 0.00 0.00 0.00 24
20260505122635 80 33 2.0 5.0 0.00 0.00 0.00 23
20260505121700 78 315 1.0 8.0 0.00 0.00 0.00 23
20260505120635 78 315 4.0 6.0 0.00 0.00 0.00 23
20260505115719 80 315 2.0 4.0 0.00 0.00 0.00 23
20260505114635 79 0.0 1.0 0.00 0.00 0.00 23
20260505113659 78 0.0 2.0 0.00 0.00 0.00 23
20260505112636 77 327 1.0 2.0 0.00 0.00 0.00 24
20260505111659 76 315 0.0 2.0 0.00 0.00 0.00 24
20260505110636 74 315 2.0 3.0 0.00 0.00 0.00 25
20260505101700 74 315 1.0 2.0 0.00 0.00 0.00 30
20260505100635 74 225 1.0 2.0 0.00 0.00 0.00 31
20260505095747 73 158 1.0 2.0 0.00 0.00 0.00 31
20260505094743 72 0.0 2.0 0.00 0.00 0.00 39
20260505093720 71 0.0 1.0 0.00 0.00 0.00 45
20260505092636 70 0.0 1.0 0.00 0.00 0.00 48
20260505091700 69 0.0 1.0 0.00 0.00 0.00 51
20260505090635 68 0.0 1.0 0.00 0.00 0.00 61
20260505085659 68 0.0 0.0 0.00 0.00 0.00 64
20260505084636 67 0.0 1.0 0.00 0.00 0.00 67
20260505083700 66 0.0 0.0 0.00 0.00 0.00 70
20260505082635 65 0.0 0.0 0.00 0.00 0.00 71
20260505081659 65 0.0 0.0 0.00 0.00 0.00 71
20260505080636 0 0.0 0.0 0.00 0.00 0.00
20260505075700 64 0.0 0.0 0.00 0.00 0.00 69
20260505074635 64 0.0 0.0 0.00 0.00 0.00 66
20260505073700 64 0.0 1.0 0.00 0.00 0.00 65
20260505072635 64 0.0 2.0 0.00 0.00 0.00 66
20260505071701 63 0.0 0.0 0.00 0.00 0.00 73
20260505070636 63 0.0 1.0 0.00 0.00 0.00 78
20260505065700 63 0.0 1.0 0.00 0.00 0.00 81
20260505064636 62 0.0 1.0 0.00 0.00 0.00 83
20260505063659 62 0.0 0.0 0.00 0.00 0.00 85
20260505062636 62 0.0 0.0 0.00 0.00 0.00 86
20260505061659 61 0.0 0.0 0.00 0.00 0.00 86
20260505060636 61 0.0 0.0 0.00 0.00 0.00 86
20260505055700 61 0.0 0.0 0.00 0.00 0.00 86
20260505054636 60 0.0 0.0 0.00 0.00 0.00 87
20260505053659 60 0.0 0.0 0.00 0.00 0.00 87
20260505052636 60 0.0 0.0 0.00 0.00 0.00 88
20260505051700 60 0.0 1.0 0.00 0.00 0.00 88
20260505050636 61 0.0 0.0 0.00 0.00 0.00 88